Regional Weather Roundup
Issued by NWS

Home | Current Version | Previous Version | Graphics & Text | Print | Product List | Glossary On
Versions: 1 2 3 4 5 6 7 8 9 10 11 12 13 14 15 16 17 18 19 20 21 22 23 24 25 26 27
000
ASUS45 KBOU 151307
RWRCO

WEATHER ROUNDUP FOR COLORADO
NATIONAL WEATHER SERVICE DENVER/BOULDER CO
600 AM MST SUN JAN 15 2017

NOTE: "FAIR" INDICATES FEW OR NO CLOUDS BELOW 12000 FEET WITH NO
SIGNIFICANT WEATHER AND/OR OBSTRUCTIONS TO VISIBILITY.

COZ001>005-013-030-031-151400-
...NORTHWEST COLORADO...

CITY           SKY/WX    TMP DP  RH WIND       PRES   REMARKS
CRAIG          CLOUDY    25  22  88 CALM      30.11F
HAYDEN         CLOUDY    25  21  86 NE3       30.09F
MEEKER         CLOUDY    28  26  92 CALM      30.07F
MOUNT WERNER   NOT AVBL
STEAMBOAT SPGS CLOUDY    22  20  95 NW3       30.08F
WALDEN           N/A    N/A N/A N/A CALM      30.12F VSB 1/2
$$

COZ006>008-011-151400-
...WEST CENTRAL VALLEYS...

CITY           SKY/WX    TMP DP  RH WIND       PRES   REMARKS
GRAND JUNCTION FAIR      34  32  92 NW3       30.02F
MONTROSE       FOG       32  32 100 W3        30.04R VSB 1
EAGLE          CLOUDY    29  25  85 E3        30.10F
RIFLE          CLOUDY    30  29  96 E6        30.05F WCI  24
DELTA          CLOUDY    38  36  94 W3        30.03F
NUCLA          CLOUDY    34  32  93 CALM      30.02S
$$

COZ017>023-064>068-151400-
...SOUTHWEST COLORADO...

CITY           SKY/WX    TMP DP  RH WIND       PRES   REMARKS
DURANGO        FAIR      34  32  92 CALM      29.96F
CORTEZ         CLOUDY    39  37  92 NE5       29.95F
PAGOSA SPRINGS FOG       33  33 100 NE10      29.97F VSB 1/2 WCI  25
TELLURIDE      CLOUDY    33  28  83 CALM      29.99S
WOLF CREEK PAS   N/A     21  21 100 CALM      30.11F
$$

COZ009-010-012-014-032>034-037-058>063-151400-
...CENTRAL COLORADO...

CITY           SKY/WX    TMP DP  RH WIND       PRES   REMARKS
ASPEN          CLOUDY    24  22  91 S6        30.04F WCI  17
BUENA VISTA    MOCLDY    29  23  78 NW5       30.07F WCI  24
COPPER MTN     NOT AVBL
BERTHOUD PASS  NOT AVBL
COTTONWOOD PAS MOCLDY    30  28  93 CALM      30.07F
GUNNISON       FOG       15  14  95 CALM      30.07F VSB 1
KREMMLING      NOT AVBL
LEADVILLE      CLOUDY    22  19  89 NE3       30.07F
MONARCH PASS   FOG       23  21  93 NE12      30.18F VSB<1/4 WCI  12
SALIDA         CLOUDY    32  31  96 CALM      30.15F
SUNLIGHT       FOG       23  21  93 NE5       30.09F VSB 1   WCI  17
WILKERSON PASS CLOUDY    28  25  86 S5        30.14S WCI  23
$$

COZ069>075-151400-
...SAN LUIS VALLEY/SANGRE DE CRISTO MOUNTAINS...

CITY           SKY/WX    TMP DP  RH WIND       PRES   REMARKS
ALAMOSA        LGT SNOW  26  25  96 CALM      30.03F FOG
LA VETA PASS   NOT AVBL
SAGUACHE       CLOUDY    32  27  80 NW6       30.03F WCI  26
$$

COZ035-036-038>040-151400-
...NORTHERN COLORADO FRONT RANGE...

CITY           SKY/WX    TMP DP  RH WIND       PRES   REMARKS
DENVER INTL AP CLOUDY    25  23  92 W6        30.11F FOG     WCI  18
DMNS CITY PARK   N/A     26  24  93 E7        30.11F WCI  18
AURORA         CLOUDY    26  26  99 S5        30.11F FOG     WCI  20
FRONT RANGE AP NOT AVBL
ERIE MUNI ARPT FAIR      23  22  96 CALM      30.12F FOG
BOULDER MUN AP FAIR      28  27  93 S3        30.11F
CENTENNIAL     CLOUDY    24  22  91 E5        30.10F FOG     WCI  18
BROOMFIELD     CLOUDY    28  25  86 CALM      30.11F FOG
FORT COLLINS   FAIR      27  23  86 CALM      30.12F
LONGMONT       FAIR      23  20  89 SW5       30.14F WCI  17
$$

COZ041-046-047-076>085-087-088-151400-
...PIKES PEAK/PALMER DIVIDE AND SOUTHERN FOOTHILLS...

CITY           SKY/WX    TMP DP  RH WIND       PRES   REMARKS
COLO. SPRINGS  CLOUDY    31  23  72 N5        30.09F WCI  26
A. F. ACADEMY  FAIR      28  24  84 N7        30.08F WCI  21
SCHRIEVER AFB  NOT AVBL
ELLICOTT       LGT SNOW N/A N/A N/A NE5       30.07F
FALCON         CLOUDY    31  26  83 W3        30.08F
FORT CARSON    NOT AVBL
LIMON          CLOUDY    29  26  89 NW5       30.10F WCI  24
MONUMENT HILL  CLOUDY    27  25  93 W5        30.09F FOG     WCI  21
TRINIDAD       CLOUDY    31  29  92 CALM      30.08F FOG
$$

COZ042>045-048>051-090-091-151400-
...NORTHEAST COLORADO...

CITY           SKY/WX    TMP DP  RH WIND       PRES   REMARKS
GREELEY ARPT   FAIR      20  19  96 CALM      30.14F FOG
AKRON          CLOUDY    27  22  81 NW5       30.12F WCI  22
BURLINGTON     CLOUDY    33  26  75 E5        30.12F WCI  29
WRAY           CLOUDY    25  23  93 CALM      30.17F
STERLING       CLOUDY    21  19  93 CALM      30.13F
HOLYOKE        MOCLDY    25  21  86 CALM      30.16F
FORT MORGAN    CLOUDY    26  22  87 NW3       30.13F
$$

COZ086-089-092>099-151400-
...SOUTHEAST COLORADO...

CITY           SKY/WX    TMP DP  RH WIND       PRES   REMARKS
PUEBLO         CLOUDY    30  25  81 CALM      30.10F
LA JUNTA       FRZ RAIN  32  29  88 S3        30.14R FOG
LAMAR          CLOUDY    31  29  92 E6        30.13S FOG     WCI  25
SPRINGFIELD      N/A     29  29 100 CALM      30.10F
$$




USA.gov is the U.S. government's official web portal to all federal, state and local government web resources and services.